Weather History for KFDR - December, 2012

Change the Weather History Date:

Thursday, December 27, 2012

  Actual Average (WUND) Record (WUND)
Temperature  
Mean Temperature 27 °F -  
Max Temperature 37 °F - - (-1)
Min Temperature 17 °F - - (-1)
Degree Days  
Heating Degree Days 38    
Moisture  
Dew Point 21 °F    
Average Humidity 82    
Maximum Humidity 93    
Minimum Humidity 67    
Precipitation  
Precipitation 0.00 in - - ()
Sea Level Pressure  
Sea Level Pressure 29.93 in    
Wind  
Wind Speed 9 mph (East)    
Max Wind Speed 14 mph    
Max Gust Speed -    
Visibility 9 miles    
Events      
Averages and records for this station are not official NWS values.
T = Trace of Precipitation, MM = Missing Value Source: NWS Daily Summary

Daily Weather History Graph

Daily Weather History Graph

Search for Another Location

Airport or City:

Trip Planner

Search our weather history database for the weather conditions in past years. The results will help you decide how hot, cold, wet, or windy it might be!

Date:

Astronomy

Dec. 27, 2012 Rise Set
Actual Time 7:41 AM CST 5:33 PM CST
Civil Twilight 7:13 AM CST 6:01 PM CST
Nautical Twilight 6:41 AM CST 6:32 PM CST
Astronomical Twilight 6:11 AM CST 7:03 PM CST
Moon 5:16 PM CST 6:54 AM CST
Length of Visible Light 10h 48m
Length of Day
9h 52m
Full, 100% of the Moon is Illuminated
Dec 27
Full
Dec 28
Full
Jan 4
Last Quarter
Jan 11
New
Jan 18
First Quarter

Hourly Weather History & Observations

Time (CST) Temp. Windchill Dew Point Humidity Pressure Visibility Wind Dir Wind Speed Gust Speed Precip Events Conditions
12:53 AM 19.9 °F 11.1 °F 12.9 °F 74% 30.06 in 10.0 mi ESE 6.9 mph - N/A   Clear
1:53 AM 19.0 °F 10.0 °F 12.9 °F 77% 30.03 in 10.0 mi ESE 6.9 mph - N/A   Clear
2:53 AM 18.0 °F 8.7 °F 12.9 °F 81% 30.02 in 10.0 mi ENE 6.9 mph - N/A   Clear
3:53 AM 18.0 °F 8.7 °F 12.9 °F 81% 30.01 in 10.0 mi East 6.9 mph - N/A   Clear
4:53 AM 17.1 °F 6.6 °F 12.0 °F 81% 30.00 in 10.0 mi ENE 8.1 mph - N/A   Clear
5:53 AM 18.0 °F 5.4 °F 14.0 °F 84% 29.99 in 10.0 mi ESE 11.5 mph - N/A   Clear
6:53 AM 18.0 °F 6.9 °F 15.1 °F 88% 29.98 in 10.0 mi ESE 9.2 mph - N/A   Clear
7:53 AM 19.0 °F 10.0 °F 15.1 °F 85% 29.99 in 10.0 mi East 6.9 mph - N/A   Clear
8:53 AM 19.9 °F 9.3 °F 17.1 °F 89% 29.98 in 9.0 mi SE 9.2 mph - N/A   Clear
9:53 AM 25.0 °F 14.2 °F 21.0 °F 85% 29.97 in 8.0 mi SSE 11.5 mph - N/A   Clear
10:53 AM 28.0 °F 17.5 °F 23.0 °F 81% 29.95 in 9.0 mi South 12.7 mph - N/A   Clear
11:53 AM 32.0 °F 22.1 °F 25.0 °F 75% 29.92 in 10.0 mi South 13.8 mph - N/A   Clear
12:53 PM 34.0 °F 24.6 °F 26.1 °F 73% 29.88 in 10.0 mi South 13.8 mph - N/A   Clear
1:53 PM 36.0 °F 28.5 °F 26.1 °F 67% 29.86 in 10.0 mi South 10.4 mph - N/A   Clear
3:53 PM 37.0 °F 30.4 °F 28.0 °F 70% 29.83 in 10.0 mi South 9.2 mph - N/A   Clear
4:53 PM 36.0 °F 32.1 °F 28.9 °F 76% 29.83 in 10.0 mi SE 4.6 mph - N/A   Clear
5:53 PM 34.0 °F 28.0 °F 28.9 °F 82% 29.84 in 10.0 mi ESE 6.9 mph - N/A   Clear
6:53 PM 32.0 °F 24.8 °F 28.0 °F 85% 29.87 in 10.0 mi NNE 8.1 mph - N/A   Clear
7:53 PM 30.0 °F 21.7 °F 26.1 °F 85% 29.88 in 10.0 mi NE 9.2 mph - N/A   Clear
8:53 PM 28.0 °F 18.6 °F 25.0 °F 88% 29.92 in 9.0 mi North 10.4 mph - N/A   Clear
9:53 PM 26.1 °F 15.6 °F 24.1 °F 92% 29.91 in 7.0 mi NNE 11.5 mph - N/A   Clear
10:53 PM 26.1 °F 15.6 °F 24.1 °F 92% 29.92 in 6.0 mi NNE 11.5 mph - N/A   Clear
11:11 PM 26.6 °F 17.5 °F 23.0 °F 86% 29.90 in 6.0 mi NNE 9.2 mph - N/A   Scattered Clouds
11:19 PM 26.6 °F 16.8 °F 24.8 °F 93% 29.90 in 6.0 mi NNE 10.4 mph - N/A   Mostly Cloudy
11:53 PM 28.9 °F 19.2 °F 25.0 °F 85% 29.91 in 9.0 mi NNE 11.5 mph - N/A   Overcast